Retour au catalogue

FENGYUN 1C DEB

ActifSSO
NORAD 31320·DEBRIS·🇨🇳 China

Lancé May 10, 1999 depuis Taiyuan Satellite Launch Center

Loading…

Prochains Passages (prochaines 24 heures)

TLE

VieillissantSource: Space-Track

Époque: Sep 10, 2026, 06:33 UTC

1 31320U 99025BPY 26253.27302519  .00002491  00000-0  10704-2 0  9991
2 31320  98.3108  55.9715 0098150  31.7617 328.9432 14.22953625642169

Suivez FENGYUN 1C DEB en temps réel avec AllMySat

Download on the App Store